User: anonymous   Login
Location: Alvis C Story Elementary School
(33.0968°N, 96.6364°W)
Time: 16:54:35
(UTC+00:00)
Language:

PSLV DEB - Orbit

View from above orbital plane
View from above orbital plane
View from above satellite
View from above satellite

Ground track
Ground track

The orbit data is extracted from the following two-line orbital elements,

1 27136U 01049CG  22278.35226088  .00004376  00000-0  44359-3 0  9996
2 27136  98.0702 304.1789 0040810 150.2433 220.6225 14.90826163142398
Epoch (UTC): 05 October 2022 08:27:15
Eccentricity: 0.0040810
inclination: 98.0702°
perigee height: 567 km
apogee height: 624 km
right ascension of ascending node: 304.1789°
argument of perigee: 150.2433°
revolutions per day: 14.90826163
mean anomaly at epoch: 220.6225°
orbit number at epoch: 14239

The dashed part of the orbit path shows where the satellite is in the earth's shadow,  

DLR